STARLINK-1361, 45567

Orbit data source: Space-Track

STARLINK-1361, 45567 is a payload satellite owned by SpaceX/Seattle (US) in LEO that was launched on Wed, 22 Apr 2020 UTC via an FALCON 9 launch vehicle from the Air Force Eastern Test Range (AFETR). Payload-class satellites include a variety of spacecraft equipped with specific instruments for various scientific and technological missions. These include communications satellites like Starlink; space stations such as the ISS; scientific satellites like the Hubble; Earth observation satellites from companies like Planet Labs, Umbra, and HawkEye 360; GPS; miniature CubeSats for education and research; and military/defense satellites.

Loading next visibility...
Identifier
45567, 2020-025AN
Orbit
LEO
Country
Flag of USUS
Related business
Manufacturer
SpaceX/Seattle
Mission
Partially operational Commercial Communications
Bus & Motor
STARLINK, Unknown motor
Mass
260 kg wet, ~248 kg dry
Launch date (UTC)
2020-04-22 (6 years ago)
Launch vehicle
FALCON 9
Launch site
Air Force Eastern Test Range (AFETR)
Object type
Payload
Rocket body
Debris
Shape & HBR
Box + 1 Pan, 10.1 m
Radar Cross Section
13.562 m², Large (>1 m²)

Expand to show TLE details & history
Last TLE update: 9 hours ago

TLE from 9 hours ago
0 STARLINK-1361
1 45567U 20025AN  26171.00002315  .01128250  00000-0  92314-2 0  9994
2 45567  53.0415 298.4016 0001653  85.9230 269.2510 15.67499520  5872
Epoch: 2026-06-20T00:00Z
TLE epoch observation values (Epoch: 2026-06-20T00:00:02.000Z)
Latitude
-3.97517°
Longitude
27.19199°
Altitude
367.577 km
Speed
7.69 km/s
True Right ascension
19h 41m 41s
True Declination
-3° 57' 00"
Sunlit
Object was in full shadow at epoch
Visualization orbit readout
Latitude
Unknown
Longitude
Unknown
Altitude
Unknown
Speed
Unknown
Apparent Right ascension
Unknown
Apparent Declination
Unknown
Sunlit
N/A
Visualization observer readout
Local Sidereal Time
20:15:57
Azimuth
Unknown
Elevation
Unknown
Doppler factor
Unknown
Orbital elements
Apogee altitude
367.454 km
Perigee altitude
365.225 km
Semi-major axis
6,744.477 km
Eccentricity
0.00017
Inclination
53.0415°
RAAN
298.4016°
Arg. of periapsis
85.923°
True anomaly
269.23206°
Mean anomaly
269.251°
Eccentric anomaly
269.24153°
Mean motion
3.91851 °/min
Orbital period
91.87 mins
BSTAR
0.0092314
Loading maneuver chart data...
Computing Atmospheric mass density...

Documentation

Showing up to 5 results
|